EN

Hourly Weather Laguna Beach

Today, 25 July, Sunday

Time Temperature Precipitation Wind Pressure Humidity
00:00 +22°C° 0 mm 1 mps 757 mmHg 81%
01:00 +21°C° 0 mm 1 mps 757 mmHg 82%
02:00 +21°C° 0 mm 1 mps 757 mmHg 81%
03:00 +22°C° 0 mm 1 mps 756 mmHg 80%
04:00 +22°C° 0 mm 1 mps 756 mmHg 79%
05:00 +22°C° 0 mm 1 mps 757 mmHg 76%
06:00 +23°C° 0 mm 1 mps 757 mmHg 73%
07:00 +24°C° 0 mm 1 mps 757 mmHg 70%
08:00 +25°C° 0 mm 1 mps 757 mmHg 64%
09:00 +27°C° 0 mm 2 mps 757 mmHg 58%
10:00 +29°C° 0 mm 2 mps 757 mmHg 51%
11:00 +29°C° 0 mm 3 mps 757 mmHg 51%
12:00 +29°C° 0 mm 3 mps 757 mmHg 50%
13:00 +30°C° 0 mm 3 mps 756 mmHg 49%
14:00 +29°C° 0 mm 3 mps 756 mmHg 50%
15:00 +29°C° 0 mm 3 mps 756 mmHg 50%
16:00 +28°C° 0 mm 3 mps 755 mmHg 51%
17:00 +27°C° 0 mm 3 mps 755 mmHg 57%
18:00 +25°C° 0 mm 2 mps 756 mmHg 63%
19:00 +24°C° 0 mm 2 mps 756 mmHg 69%
20:00 +23°C° 0 mm 2 mps 756 mmHg 70%
21:00 +23°C° 0 mm 2 mps 756 mmHg 71%
22:00 +23°C° 0 mm 1 mps 756 mmHg 72%
23:00 +23°C° 0 mm 1 mps 756 mmHg 72%

Tomorrow, 26 July, Monday

Time Temperature Precipitation Wind Pressure Humidity
00:00 +23°C° 0 mm 1 mps 755 mmHg 71%
01:00 +23°C° 0 mm 1 mps 755 mmHg 70%
02:00 +23°C° 0 mm 1 mps 755 mmHg 70%
03:00 +24°C° 0 mm 1 mps 755 mmHg 70%
04:00 +24°C° 0 mm 1 mps 755 mmHg 70%
05:00 +24°C° 0 mm 1 mps 755 mmHg 66%
06:00 +25°C° 0 mm 1 mps 755 mmHg 63%
07:00 +26°C° 0 mm 1 mps 755 mmHg 59%
08:00 +27°C° 0 mm 2 mps 755 mmHg 55%
09:00 +29°C° 0 mm 2 mps 755 mmHg 51%
10:00 +30°C° 0 mm 3 mps 755 mmHg 47%
11:00 +31°C° 0 mm 3 mps 755 mmHg 46%
12:00 +31°C° 0 mm 3 mps 755 mmHg 44%
13:00 +33°C° 0 mm 4 mps 755 mmHg 43%
14:00 +31°C° 0 mm 3 mps 755 mmHg 44%
15:00 +31°C° 0 mm 3 mps 755 mmHg 45%
16:00 +31°C° 0 mm 3 mps 755 mmHg 46%
17:00 +29°C° 0 mm 2 mps 755 mmHg 51%
18:00 +28°C° 0 mm 2 mps 755 mmHg 55%
19:00 +26°C° 0 mm 2 mps 755 mmHg 59%
20:00 +26°C° 0 mm 1 mps 755 mmHg 63%
21:00 +25°C° 0 mm 1 mps 756 mmHg 66%
22:00 +24°C° 0 mm 1 mps 756 mmHg 69%
23:00 +24°C° 0 mm 1 mps 756 mmHg 70%

Day after tomorrow, 27 July, Tuesday

Time Temperature Precipitation Wind Pressure Humidity
00:00 +24°C° 0 mm 1 mps 756 mmHg 71%
01:00 +23°C° 0 mm 1 mps 756 mmHg 72%
02:00 +23°C° 0 mm 1 mps 755 mmHg 71%
03:00 +23°C° 0 mm 1 mps 755 mmHg 71%
04:00 +23°C° 0 mm 1 mps 755 mmHg 70%
05:00 +25°C° 0 mm 1 mps 756 mmHg 66%
06:00 +26°C° 0 mm 1 mps 756 mmHg 61%
07:00 +27°C° 0 mm 1 mps 756 mmHg 56%
08:00 +29°C° 0 mm 2 mps 756 mmHg 51%
09:00 +30°C° 0 mm 3 mps 756 mmHg 47%
10:00 +33°C° 0 mm 3 mps 757 mmHg 42%
11:00 +33°C° 0 mm 4 mps 756 mmHg 41%
12:00 +34°C° 0 mm 4 mps 756 mmHg 41%
13:00 +34°C° 0 mm 4 mps 756 mmHg 40%
14:00 +33°C° 0 mm 4 mps 756 mmHg 42%
15:00 +33°C° 0 mm 4 mps 756 mmHg 43%
16:00 +31°C° 0 mm 3 mps 756 mmHg 44%
17:00 +30°C° 0 mm 3 mps 756 mmHg 50%
18:00 +28°C° 0 mm 2 mps 756 mmHg 56%
19:00 +26°C° 0 mm 2 mps 757 mmHg 62%
20:00 +25°C° 0 mm 2 mps 757 mmHg 63%
21:00 +25°C° 0 mm 1 mps 757 mmHg 65%
22:00 +24°C° 0 mm 1 mps 758 mmHg 67%
23:00 +24°C° 0 mm 1 mps 757 mmHg 68%

28 July, Wednesday

Time Temperature Precipitation Wind Pressure Humidity
00:00 +24°C° 0 mm 2 mps 757 mmHg 68%
01:00 +24°C° 0 mm 2 mps 757 mmHg 69%
02:00 +24°C° 0 mm 2 mps 757 mmHg 69%
03:00 +23°C° 0 mm 2 mps 757 mmHg 69%
04:00 +23°C° 0 mm 2 mps 757 mmHg 69%
05:00 +25°C° 0 mm 2 mps 757 mmHg 65%
06:00 +26°C° 0 mm 2 mps 757 mmHg 60%
07:00 +27°C° 0 mm 2 mps 758 mmHg 56%
08:00 +28°C° 0 mm 2 mps 758 mmHg 51%
09:00 +30°C° 0 mm 3 mps 758 mmHg 46%
10:00 +33°C° 0 mm 4 mps 758 mmHg 41%
11:00 +33°C° 0 mm 4 mps 758 mmHg 39%
12:00 +34°C° 0 mm 4 mps 758 mmHg 37%
13:00 +35°C° 0 mm 5 mps 757 mmHg 35%
14:00 +34°C° 0 mm 5 mps 757 mmHg 36%
15:00 +33°C° 0 mm 5 mps 757 mmHg 36%
16:00 +33°C° 0 mm 5 mps 757 mmHg 37%
17:00 +30°C° 0 mm 4 mps 757 mmHg 42%
18:00 +28°C° 0 mm 3 mps 757 mmHg 47%
19:00 +26°C° 0 mm 3 mps 757 mmHg 52%
20:00 +25°C° 0 mm 2 mps 757 mmHg 54%
21:00 +25°C° 0 mm 2 mps 757 mmHg 57%
22:00 +24°C° 0 mm 2 mps 757 mmHg 59%
23:00 +24°C° 0 mm 2 mps 757 mmHg 61%

29 July, Thursday

Time Temperature Precipitation Wind Pressure Humidity
00:00 +24°C° 0 mm 2 mps 757 mmHg 62%
01:00 +23°C° 0 mm 1 mps 756 mmHg 64%
02:00 +23°C° 0 mm 2 mps 756 mmHg 65%
03:00 +23°C° 0 mm 2 mps 756 mmHg 65%
04:00 +23°C° 0 mm 2 mps 756 mmHg 66%
05:00 +24°C° 0 mm 2 mps 756 mmHg 61%
06:00 +26°C° 0 mm 1 mps 756 mmHg 55%
07:00 +27°C° 0 mm 1 mps 757 mmHg 50%
08:00 +29°C° 0 mm 2 mps 756 mmHg 45%
09:00 +31°C° 0 mm 2 mps 756 mmHg 40%
10:00 +34°C° 0 mm 3 mps 756 mmHg 36%
11:00 +34°C° 0 mm 3 mps 756 mmHg 35%
12:00 +35°C° 0 mm 4 mps 756 mmHg 34%
13:00 +35°C° 0 mm 4 mps 755 mmHg 33%
14:00 +35°C° 0 mm 4 mps 755 mmHg 33%
15:00 +34°C° 0 mm 5 mps 755 mmHg 34%
16:00 +34°C° 0 mm 5 mps 754 mmHg 34%
17:00 +30°C° 0 mm 4 mps 755 mmHg 41%
18:00 +28°C° 0 mm 3 mps 755 mmHg 48%
19:00 +26°C° 0 mm 2 mps 755 mmHg 55%
20:00 +25°C° 0 mm 2 mps 755 mmHg 58%
21:00 +25°C° 0 mm 2 mps 755 mmHg 62%
22:00 +24°C° 0 mm 1 mps 755 mmHg 65%
23:00 +24°C° 0 mm 1 mps 755 mmHg 66%

30 July, Friday

Time Temperature Precipitation Wind Pressure Humidity
00:00 +23°C° 0 mm 1 mps 755 mmHg 67%
01:00 +23°C° 0 mm 1 mps 755 mmHg 67%
02:00 +23°C° 0 mm 1 mps 755 mmHg 68%
03:00 +23°C° 0 mm 1 mps 754 mmHg 69%
04:00 +23°C° 0 mm 1 mps 754 mmHg 70%
05:00 +24°C° 0 mm 1 mps 755 mmHg 64%
06:00 +26°C° 0 mm 1 mps 755 mmHg 58%
07:00 +27°C° 0 mm 1 mps 755 mmHg 51%
08:00 +29°C° 0 mm 1 mps 755 mmHg 46%
09:00 +31°C° 0 mm 1 mps 755 mmHg 42%
10:00 +34°C° 0 mm 2 mps 755 mmHg 37%
11:00 +34°C° 0 mm 2 mps 755 mmHg 36%
12:00 +35°C° 0 mm 3 mps 755 mmHg 35%
13:00 +35°C° 0 mm 3 mps 755 mmHg 34%
14:00 +35°C° 0 mm 3 mps 755 mmHg 36%
15:00 +34°C° 0 mm 3 mps 755 mmHg 38%
16:00 +33°C° 0 mm 3 mps 755 mmHg 39%
17:00 +30°C° 0 mm 3 mps 755 mmHg 47%
18:00 +28°C° 0 mm 2 mps 755 mmHg 54%
19:00 +26°C° 0 mm 2 mps 755 mmHg 61%
20:00 +25°C° 0 mm 2 mps 756 mmHg 63%
21:00 +25°C° 0 mm 1 mps 756 mmHg 66%
22:00 +24°C° 0 mm 1 mps 756 mmHg 68%
23:00 +24°C° 0 mm 1 mps 756 mmHg 68%
Show more